Weather History for KRNP - April, 2013

Change the Weather History Date:

Friday, April 19, 2013

  Actual Average (KFNT) Record (KFNT)
Temperature  
Mean Temperature 46 °F 48 °F  
Max Temperature 60 °F 59 °F 83 °F (2005)
Min Temperature 33 °F 37 °F 22 °F (1926)
Degree Days  
Heating Degree Days 18 17  
Month to date heating degree days 394  
Since 1 July heating degree days 6439  
Cooling Degree Days 0 0  
Month to date cooling degree days 0  
Year to date cooling degree days 0  
Moisture  
Dew Point 37 °F    
Average Humidity 77    
Maximum Humidity 94    
Minimum Humidity 55    
Precipitation  
Precipitation 0.00 in 0.10 in 1.29 in (1941)
Month to date precipitation 1.85  
Year to date precipitation 6.87  
Snow  
Snow 0.00 in 0.10 in 1.50 in (1943)
Month to date snowfall 2.0  
Since 1 July snowfall 47.1  
Snow Depth -    
Sea Level Pressure  
Sea Level Pressure 29.51 in    
Wind  
Wind Speed 14 mph (SW)    
Max Wind Speed 28 mph    
Max Gust Speed 40 mph    
Visibility 9 miles    
Events Rain , Snow    
T = Trace of Precipitation, MM = Missing Value Source: NWS Daily Summary

Daily Weather History Graph

Daily Weather History Graph

Search for Another Location

Airport or City:

Trip Planner

Search our weather history database for the weather conditions in past years. The results will help you decide how hot, cold, wet, or windy it might be!

Date:

Astronomy

Apr. 19, 2013 Rise Set
Actual Time 6:47 AM EDT 8:24 PM EDT
Civil Twilight 6:18 AM EDT 8:53 PM EDT
Nautical Twilight 5:41 AM EDT 9:30 PM EDT
Astronomical Twilight 5:03 AM EDT 10:09 PM EDT
Moon 1:58 PM EDT (4/19) 3:12 AM EDT (4/19)
Length of Visible Light 14h 35m
Length of Day
13h 36m
First Quarter, 61% of the Moon is Illuminated
Apr 19
First Quarter
Apr 25
Full
May 2
Last Quarter
May 9
New
May 18
First Quarter

Hourly Weather History & Observations

Time (EDT) Temp. Windchill Dew Point Humidity Pressure Visibility Wind Dir Wind Speed Gust Speed Precip Events Conditions
12:14 AM 60.1 °F - 57.2 °F 90% 29.54 in 7.0 mi South 9.2 mph 16.1 mph N/A Rain Rain
12:35 AM 59.9 °F - 57.2 °F 91% 29.53 in 10.0 mi SSE 10.4 mph 17.3 mph N/A Rain Rain
12:55 AM 59.7 °F - 57.0 °F 91% 29.51 in 10.0 mi SSE 9.2 mph - N/A Rain Light Rain
1:14 AM 59.5 °F - 56.8 °F 91% 29.49 in 10.0 mi SSE 10.4 mph 17.3 mph N/A Rain Light Rain
1:35 AM 59.5 °F - 56.8 °F 91% 29.48 in 10.0 mi SSE 11.5 mph - N/A Rain Rain
1:55 AM 59.5 °F - 56.8 °F 91% 29.46 in 10.0 mi SSE 11.5 mph 18.4 mph N/A Rain Light Rain
2:14 AM 59.9 °F - 57.2 °F 91% 29.44 in 7.0 mi SSE 12.7 mph 20.7 mph N/A Rain Rain
2:35 AM 60.1 °F - 57.4 °F 91% 29.42 in 7.0 mi SSE 11.5 mph 17.3 mph N/A Rain Rain
2:55 AM 60.4 °F - 57.9 °F 91% 29.41 in 7.0 mi South 11.5 mph 18.4 mph N/A Rain Rain
3:14 AM 60.4 °F - 58.5 °F 93% 29.39 in 5.0 mi SSE 12.7 mph 19.6 mph N/A Rain Rain
3:35 AM 60.6 °F - 58.8 °F 94% 29.39 in 7.0 mi South 10.4 mph 17.3 mph N/A Rain Heavy Rain
3:54 AM 60.3 °F - 58.5 °F 94% 29.38 in 5.0 mi SSE 11.5 mph 18.4 mph N/A Rain Rain
4:15 AM 59.9 °F - 58.1 °F 94% 29.36 in 5.0 mi South 8.1 mph - N/A Rain Heavy Rain
4:34 AM 51.4 °F - 49.6 °F 94% 29.38 in 4.0 mi WSW 11.5 mph - N/A Rain Rain
4:54 AM 48.4 °F - 46.6 °F 93% 29.36 in 4.0 mi West 11.5 mph 26.5 mph N/A Rain Rain
5:15 AM 46.6 °F - 44.6 °F 93% 29.38 in 7.0 mi West 18.4 mph 31.1 mph N/A Rain Light Rain
5:34 AM 46.2 °F 40.5 °F 44.2 °F 93% 29.37 in 10.0 mi West 12.7 mph 20.7 mph N/A Rain Light Rain
5:55 AM 45.0 °F 38.9 °F 43.0 °F 93% 29.39 in 7.0 mi West 12.7 mph 26.5 mph N/A Rain Rain
6:15 AM 44.6 °F 37.8 °F 42.8 °F 93% 29.37 in 5.0 mi West 15.0 mph 24.2 mph N/A   Unknown
6:55 AM 43.2 °F 36.2 °F 41.0 °F 92% 29.39 in 4.0 mi WSW 13.8 mph 20.7 mph N/A   Overcast
7:15 AM 42.3 °F 35.1 °F 39.7 °F 91% 29.40 in 5.0 mi WSW 13.8 mph 25.3 mph N/A   Overcast
7:34 AM 41.7 °F 33.4 °F 38.8 °F 89% 29.40 in 10.0 mi WSW 17.3 mph 23.0 mph N/A   Overcast
7:55 AM 41.2 °F 33.4 °F 37.4 °F 86% 29.40 in 10.0 mi WSW 15.0 mph 21.9 mph N/A   Overcast
8:15 AM 41.2 °F 34.5 °F 37.0 °F 85% 29.41 in 10.0 mi WSW 11.5 mph 21.9 mph N/A   Overcast
8:34 AM 40.6 °F 32.0 °F 36.3 °F 85% 29.42 in 10.0 mi WSW 17.3 mph 23.0 mph N/A   Overcast
8:55 AM 40.1 °F 32.7 °F 35.8 °F 85% 29.42 in 10.0 mi WSW 12.7 mph 23.0 mph N/A   Overcast
9:14 AM 40.1 °F 31.0 °F 34.9 °F 82% 29.42 in 10.0 mi WSW 18.4 mph 26.5 mph N/A   Overcast
9:35 AM 40.1 °F 31.0 °F 33.1 °F 76% 29.42 in 10.0 mi SW 18.4 mph 25.3 mph N/A   Overcast
9:55 AM 40.1 °F 31.6 °F 32.9 °F 75% 29.43 in 10.0 mi WSW 16.1 mph 23.0 mph N/A   Overcast
10:14 AM 40.1 °F 30.7 °F 31.5 °F 71% 29.43 in 10.0 mi WSW 19.6 mph 31.1 mph N/A   Overcast
10:55 AM 40.3 °F 31.9 °F 30.6 °F 68% 29.44 in 10.0 mi WSW 16.1 mph 28.8 mph N/A   Overcast
11:15 AM 40.3 °F 32.2 °F 30.4 °F 68% 29.45 in 10.0 mi SW 15.0 mph 25.3 mph N/A   Overcast
11:34 AM 40.5 °F 30.4 °F 29.5 °F 65% 29.46 in 10.0 mi SW 23.0 mph 31.1 mph N/A   Overcast
11:55 AM 40.5 °F 31.2 °F 28.2 °F 62% 29.47 in 10.0 mi SW 19.6 mph 33.4 mph N/A   Overcast
12:15 PM 40.1 °F 30.7 °F 28.6 °F 63% 29.47 in 10.0 mi SW 19.6 mph 33.4 mph N/A   Overcast
12:34 PM 40.5 °F 31.5 °F 29.1 °F 64% 29.47 in 10.0 mi SW 18.4 mph 26.5 mph N/A   Overcast
12:55 PM 41.2 °F 31.9 °F 28.4 °F 60% 29.47 in 10.0 mi SW 20.7 mph 33.4 mph N/A   Overcast
1:14 PM 41.0 °F 31.9 °F 28.4 °F 61% 29.47 in 10.0 mi SW 19.6 mph 33.4 mph N/A   Overcast
1:34 PM 40.8 °F 32.6 °F 28.6 °F 62% 29.47 in 10.0 mi SW 16.1 mph 29.9 mph N/A   Overcast
1:55 PM 41.2 °F 30.5 °F 27.9 °F 59% 29.47 in 10.0 mi SW 27.6 mph 39.1 mph N/A   Overcast
2:14 PM 41.4 °F 30.9 °F 26.8 °F 56% 29.48 in 10.0 mi SW 26.5 mph 40.3 mph N/A   Overcast
2:35 PM 41.0 °F 30.9 °F 26.8 °F 57% 29.49 in 10.0 mi SW 24.2 mph 34.5 mph N/A   Overcast
2:54 PM 41.0 °F 32.2 °F 27.3 °F 58% 29.49 in 10.0 mi SW 18.4 mph 27.6 mph N/A   Overcast
3:15 PM 41.0 °F 32.2 °F 27.5 °F 59% 29.51 in 10.0 mi WSW 18.4 mph 29.9 mph N/A   Overcast
3:35 PM 41.2 °F 31.9 °F 28.0 °F 60% 29.51 in 10.0 mi SW 20.7 mph 32.2 mph N/A   Overcast
3:54 PM 42.1 °F 33.6 °F 26.8 °F 55% 29.52 in 10.0 mi SW 18.4 mph 36.8 mph N/A   Overcast
4:15 PM 41.4 °F 33.3 °F 26.6 °F 56% 29.53 in 10.0 mi SW 16.1 mph 33.4 mph N/A   Overcast
4:35 PM 42.1 °F 32.6 °F 27.9 °F 57% 29.53 in 10.0 mi SW 23.0 mph 35.7 mph N/A   Overcast
4:54 PM 41.5 °F 32.1 °F 27.0 °F 56% 29.54 in 10.0 mi SW 21.9 mph 33.4 mph N/A   Overcast
5:15 PM 41.0 °F 31.9 °F 28.2 °F 60% 29.55 in 10.0 mi WSW 19.6 mph 27.6 mph N/A   Overcast
5:34 PM 40.6 °F 32.3 °F 28.4 °F 62% 29.57 in 10.0 mi SW 16.1 mph 29.9 mph N/A   Overcast
5:54 PM 41.7 °F 32.1 °F 27.1 °F 56% 29.58 in 10.0 mi WSW 23.0 mph 33.4 mph N/A   Overcast
6:15 PM 40.5 °F 31.8 °F 28.0 °F 61% 29.59 in 10.0 mi WSW 17.3 mph 32.2 mph N/A   Overcast
6:34 PM 40.1 °F 31.0 °F 29.3 °F 65% 29.60 in 10.0 mi WSW 18.4 mph 25.3 mph N/A   Overcast
6:55 PM 40.5 °F 32.5 °F 27.7 °F 60% 29.61 in 10.0 mi SW 15.0 mph 24.2 mph N/A   Overcast
7:14 PM 40.1 °F 29.9 °F 28.4 °F 63% 29.62 in 10.0 mi SW 23.0 mph 31.1 mph N/A   Overcast
7:35 PM 39.6 °F 31.7 °F 29.8 °F 68% 29.63 in 10.0 mi SW 13.8 mph 23.0 mph N/A   Overcast
7:54 PM 38.8 °F 30.8 °F 30.9 °F 73% 29.64 in 10.0 mi SW 13.8 mph 19.6 mph N/A   Overcast
8:15 PM 36.0 °F 29.0 °F 32.0 °F 86% 29.65 in 2.5 mi SW 9.2 mph 25.3 mph N/A Snow Light Snow
8:35 PM 36.7 °F 29.4 °F 32.5 °F 85% 29.65 in 10.0 mi SW 10.4 mph - N/A   Overcast
8:54 PM 37.6 °F 30.0 °F 32.0 °F 80% 29.67 in 10.0 mi SW 11.5 mph 23.0 mph N/A   Overcast
9:15 PM 37.6 °F 30.5 °F 32.0 °F 80% 29.67 in 10.0 mi WSW 10.4 mph 20.7 mph N/A   Light Drizzle
9:34 PM 33.8 °F 23.9 °F 30.7 °F 89% 29.69 in 1.0 mi WSW 15.0 mph 28.8 mph N/A Snow Light Snow
9:55 PM 33.8 °F 24.3 °F 31.1 °F 90% 29.69 in 4.0 mi WSW 13.8 mph 21.9 mph N/A Snow Light Snow
10:15 PM 34.2 °F 25.7 °F 31.1 °F 89% 29.70 in 10.0 mi SW 11.5 mph 16.1 mph N/A   Overcast
10:34 PM 34.7 °F 25.5 °F 31.1 °F 87% 29.71 in 10.0 mi SW 13.8 mph 17.3 mph N/A   Overcast
10:55 PM 34.9 °F 26.6 °F 31.1 °F 86% 29.71 in 10.0 mi WSW 11.5 mph 17.3 mph N/A   Overcast
11:15 PM 34.9 °F 26.6 °F 31.1 °F 86% 29.71 in 10.0 mi WSW 11.5 mph 18.4 mph N/A   Overcast
11:34 PM 35.1 °F 26.4 °F 31.1 °F 85% 29.72 in 10.0 mi WSW 12.7 mph 18.4 mph N/A   Overcast
11:55 PM 35.1 °F 25.5 °F 30.6 °F 84% 29.72 in 10.0 mi WSW 15.0 mph 18.4 mph N/A   Mostly Cloudy